FNG8 EFTU-EFTU

Flight info

Callsign FNG8
Flight time 2h 14m
Altitude 3500
Route JUTKI JURMO JUTKI
Aircraft CL60/M-SBDE1E2E3FGHIJ1J3J4J7P2RWXYZ/LB1D1

Departure

Time 2026-04-27 14:19
Airport Turku Airport (EFTU)

Arrival

Time 2026-04-27 16:34
Airport Turku Airport (EFTU)
Time Latitude Longitude Altitude Speed Heading
2026-04-27 13:57 60.51180 22.26609 166 ft 0 kts 131°
2026-04-27 14:13 60.51179 22.26612 166 ft 0 kts 124°
2026-04-27 14:13 60.51176 22.26627 166 ft 2 kts 98°
2026-04-27 14:14 60.51182 22.26661 166 ft 0 kts 40°
2026-04-27 14:14 60.51185 22.26664 166 ft 4 kts 31°
2026-04-27 14:14 60.51214 22.26681 166 ft 8 kts 12°
2026-04-27 14:14 60.51288 22.26801 167 ft 19 kts 43°
2026-04-27 14:15 60.51326 22.27044 166 ft 20 kts 87°
2026-04-27 14:15 60.51340 22.27353 165 ft 23 kts 85°
2026-04-27 14:15 60.51344 22.27466 163 ft 0 kts 85°
2026-04-27 14:16 60.51348 22.27578 163 ft 15 kts 84°
2026-04-27 14:16 60.51358 22.27784 162 ft 17 kts 84°
2026-04-27 14:16 60.51371 22.28063 162 ft 16 kts 86°
2026-04-27 14:16 60.51380 22.28287 158 ft 6 kts 84°
2026-04-27 14:17 60.51386 22.28414 156 ft 5 kts 85°
2026-04-27 14:17 60.51420 22.28528 154 ft 14 kts 21°
2026-04-27 14:17 60.51452 22.28534 153 ft 0 kts 351°
2026-04-27 14:18 60.51452 22.28533 153 ft 0 kts 351°
2026-04-27 14:18 60.51467 22.28524 153 ft 0 kts 340°
2026-04-27 14:18 60.51476 22.28518 153 ft 4 kts 340°
2026-04-27 14:19 60.51508 22.28439 154 ft 10 kts 266°
2026-04-27 14:19 60.51495 22.28160 156 ft 50 kts 266°
2026-04-27 14:19 60.51423 22.26718 183 ft 148 kts 274°
2026-04-27 14:19 60.51330 22.24450 896 ft 172 kts 272°
2026-04-27 14:20 60.51237 22.22135 2255 ft 168 kts 275°
2026-04-27 14:20 60.51078 22.19797 3160 ft 183 kts 265°
2026-04-27 14:20 60.50341 22.17587 3446 ft 205 kts 218°
2026-04-27 14:20 60.48986 22.16628 3503 ft 207 kts 194°
2026-04-27 14:21 60.47558 22.16040 3500 ft 208 kts 194°
2026-04-27 14:21 60.46146 22.15450 3500 ft 207 kts 195°
2026-04-27 14:21 60.44752 22.14852 3485 ft 206 kts 195°
2026-04-27 14:21 60.43375 22.14248 3497 ft 204 kts 196°
2026-04-27 14:22 60.41980 22.13599 3486 ft 205 kts 197°
2026-04-27 14:22 60.40606 22.12950 3494 ft 204 kts 197°
2026-04-27 14:22 60.39223 22.12296 3486 ft 204 kts 197°
2026-04-27 14:22 60.37847 22.11587 3493 ft 202 kts 203°
2026-04-27 14:23 60.36544 22.10572 3489 ft 202 kts 207°
2026-04-27 14:23 60.35247 22.09513 3490 ft 201 kts 207°
2026-04-27 14:23 60.33971 22.08478 3480 ft 202 kts 207°
2026-04-27 14:23 60.32686 22.07436 3490 ft 201 kts 207°
2026-04-27 14:24 60.31396 22.06391 3494 ft 203 kts 207°
2026-04-27 14:24 60.30098 22.05341 3491 ft 202 kts 207°
2026-04-27 14:24 60.28814 22.04304 3500 ft 202 kts 207°
2026-04-27 14:24 60.27531 22.03269 3499 ft 202 kts 207°
2026-04-27 14:25 60.26559 22.02485 3493 ft 205 kts 207°
2026-04-27 14:25 60.25316 22.01474 3478 ft 224 kts 206°
2026-04-27 14:25 60.23845 22.00285 3476 ft 229 kts 206°
2026-04-27 14:25 60.22351 21.99084 3486 ft 231 kts 206°
2026-04-27 14:26 60.20868 21.97894 3494 ft 231 kts 206°
2026-04-27 14:26 60.19392 21.96711 3506 ft 231 kts 206°
2026-04-27 14:26 60.17876 21.95497 3510 ft 232 kts 206°
2026-04-27 14:26 60.16401 21.94316 3499 ft 232 kts 206°
2026-04-27 14:27 60.14906 21.93122 3506 ft 232 kts 206°
2026-04-27 14:27 60.13403 21.91921 3500 ft 239 kts 206°
2026-04-27 14:27 60.11751 21.90584 3476 ft 274 kts 206°
2026-04-27 14:27 60.09964 21.89153 3480 ft 280 kts 205°
2026-04-27 14:28 60.08149 21.87709 3499 ft 283 kts 205°
2026-04-27 14:28 60.06353 21.86282 3500 ft 283 kts 205°
2026-04-27 14:28 60.04530 21.84836 3497 ft 283 kts 205°
2026-04-27 14:28 60.02696 21.83382 3500 ft 282 kts 205°
2026-04-27 14:29 60.00901 21.81961 3509 ft 283 kts 205°
2026-04-27 14:29 59.99108 21.80543 3509 ft 283 kts 205°
2026-04-27 14:29 59.97289 21.79105 3516 ft 283 kts 205°
2026-04-27 14:29 59.95466 21.77666 3517 ft 283 kts 206°
2026-04-27 14:30 59.93646 21.76232 3512 ft 283 kts 206°
2026-04-27 14:30 59.91822 21.74795 3506 ft 284 kts 206°
2026-04-27 14:30 59.90033 21.73387 3524 ft 283 kts 206°
2026-04-27 14:30 59.88241 21.71979 3523 ft 284 kts 206°
2026-04-27 14:31 59.86470 21.70589 3525 ft 283 kts 205°
2026-04-27 14:31 59.84666 21.69179 3532 ft 269 kts 206°
2026-04-27 14:31 59.82970 21.67855 3536 ft 264 kts 206°
2026-04-27 14:31 59.81294 21.66544 3522 ft 263 kts 206°
2026-04-27 14:32 59.79625 21.65239 3525 ft 263 kts 206°
2026-04-27 14:32 59.77975 21.63955 3541 ft 248 kts 206°
2026-04-27 14:32 59.76440 21.62768 3566 ft 231 kts 206°
2026-04-27 14:32 59.74999 21.61653 3562 ft 217 kts 207°
2026-04-27 14:33 59.73628 21.60589 3551 ft 213 kts 207°
2026-04-27 14:33 59.72264 21.59526 3532 ft 212 kts 207°
2026-04-27 14:33 59.70905 21.58468 3529 ft 211 kts 207°
2026-04-27 14:33 59.69587 21.57446 3536 ft 204 kts 208°
2026-04-27 14:34 59.68282 21.56435 3531 ft 202 kts 208°
2026-04-27 14:34 59.66985 21.55429 3534 ft 200 kts 208°
2026-04-27 14:34 59.65701 21.54437 3542 ft 192 kts 208°
2026-04-27 14:34 59.64463 21.53480 3542 ft 191 kts 208°
2026-04-27 14:35 59.63244 21.52566 3527 ft 191 kts 201°
2026-04-27 14:35 59.61919 21.52469 3525 ft 195 kts 165°
2026-04-27 14:35 59.60748 21.53683 3531 ft 189 kts 128°
2026-04-27 14:35 59.60112 21.55795 3534 ft 172 kts 90°
2026-04-27 14:36 59.60331 21.57795 3524 ft 139 kts 33°
2026-04-27 14:36 59.61161 21.58322 3551 ft 125 kts 356°
2026-04-27 14:36 59.62038 21.58289 3558 ft 131 kts 358°
2026-04-27 14:36 59.62940 21.58297 3545 ft 131 kts 358°
2026-04-27 14:37 59.63840 21.58306 3538 ft 131 kts 359°
2026-04-27 14:37 59.64759 21.58312 3535 ft 135 kts 358°
2026-04-27 14:37 59.65684 21.58317 3535 ft 137 kts 358°
2026-04-27 14:37 59.66625 21.58322 3532 ft 137 kts 358°
2026-04-27 14:38 59.67516 21.58110 3526 ft 134 kts 338°
2026-04-27 14:38 59.68204 21.56899 3520 ft 139 kts 306°
2026-04-27 14:38 59.68397 21.54931 3528 ft 157 kts 282°
2026-04-27 14:38 59.68392 21.52736 3541 ft 163 kts 281°
2026-04-27 14:39 59.68386 21.50538 3538 ft 165 kts 280°
2026-04-27 14:39 59.68380 21.48269 3541 ft 166 kts 281°
2026-04-27 14:39 59.68343 21.46010 3532 ft 170 kts 272°
2026-04-27 14:39 59.67923 21.43776 3531 ft 184 kts 246°
2026-04-27 14:40 59.66962 21.42058 3530 ft 199 kts 210°
2026-04-27 14:40 59.65611 21.41596 3547 ft 204 kts 181°
2026-04-27 14:40 59.64180 21.41625 3547 ft 208 kts 182°
2026-04-27 14:40 59.62754 21.41631 3539 ft 207 kts 182°
2026-04-27 14:41 59.61328 21.41635 3538 ft 207 kts 182°
2026-04-27 14:41 59.59887 21.41640 3542 ft 207 kts 182°
2026-04-27 14:41 59.58448 21.41642 3547 ft 208 kts 182°
2026-04-27 14:41 59.57008 21.41645 3545 ft 207 kts 182°
2026-04-27 14:42 59.55564 21.41647 3550 ft 207 kts 182°
2026-04-27 14:42 59.54139 21.41681 3545 ft 207 kts 175°
2026-04-27 14:42 59.52824 21.42558 3541 ft 202 kts 140°
2026-04-27 14:42 59.51941 21.44544 3542 ft 193 kts 105°
2026-04-27 14:43 59.51667 21.46997 3544 ft 182 kts 80°
2026-04-27 14:43 59.51672 21.49464 3551 ft 183 kts 80°
2026-04-27 14:43 59.51674 21.51966 3540 ft 183 kts 80°
2026-04-27 14:43 59.51673 21.54447 3540 ft 184 kts 79°
2026-04-27 14:44 59.51672 21.56947 3537 ft 184 kts 79°
2026-04-27 14:44 59.51671 21.59446 3532 ft 183 kts 79°
2026-04-27 14:44 59.51669 21.61919 3539 ft 184 kts 80°
2026-04-27 14:44 59.51742 21.64396 3525 ft 174 kts 62°
2026-04-27 14:45 59.52398 21.66144 3522 ft 152 kts 23°
2026-04-27 14:45 59.53358 21.66677 3536 ft 146 kts 359°
2026-04-27 14:45 59.54356 21.66679 3549 ft 147 kts 358°
2026-04-27 14:45 59.55372 21.66675 3542 ft 147 kts 358°
2026-04-27 14:46 59.56406 21.66675 3534 ft 147 kts 358°
2026-04-27 14:46 59.57421 21.66675 3530 ft 147 kts 358°
2026-04-27 14:46 59.58429 21.66675 3526 ft 146 kts 358°
2026-04-27 14:46 59.59458 21.66674 3525 ft 146 kts 358°
2026-04-27 14:47 59.60467 21.66674 3522 ft 146 kts 358°
2026-04-27 14:47 59.61481 21.66673 3518 ft 146 kts 358°
2026-04-27 14:47 59.62511 21.66673 3518 ft 146 kts 358°
2026-04-27 14:47 59.63529 21.66673 3514 ft 146 kts 358°
2026-04-27 14:48 59.64542 21.66672 3520 ft 147 kts 358°
2026-04-27 14:48 59.66573 21.66671 3524 ft 147 kts 358°
2026-04-27 14:48 59.67596 21.66671 3523 ft 147 kts 358°
2026-04-27 14:49 59.68610 21.66670 3523 ft 147 kts 358°
2026-04-27 14:49 59.69632 21.66670 3520 ft 147 kts 358°
2026-04-27 14:49 59.70661 21.66669 3522 ft 146 kts 358°
2026-04-27 14:49 59.71669 21.66669 3522 ft 147 kts 358°
2026-04-27 14:50 59.72695 21.66669 3519 ft 147 kts 358°
2026-04-27 14:50 59.73714 21.66668 3522 ft 148 kts 358°
2026-04-27 14:50 59.74726 21.66668 3520 ft 148 kts 359°
2026-04-27 14:50 59.75740 21.66421 3519 ft 147 kts 339°
2026-04-27 14:51 59.76505 21.65123 3519 ft 155 kts 307°
2026-04-27 14:51 59.76739 21.62951 3530 ft 169 kts 281°
2026-04-27 14:51 59.76730 21.60602 3539 ft 171 kts 281°
2026-04-27 14:51 59.76725 21.58236 3533 ft 171 kts 281°
2026-04-27 14:52 59.76721 21.55900 3528 ft 171 kts 281°
2026-04-27 14:52 59.76717 21.53544 3532 ft 171 kts 281°
2026-04-27 14:52 59.76714 21.51218 3532 ft 171 kts 281°
2026-04-27 14:52 59.76711 21.48845 3529 ft 171 kts 281°
2026-04-27 14:53 59.76708 21.46516 3536 ft 171 kts 281°
2026-04-27 14:53 59.76706 21.44509 3539 ft 171 kts 281°
2026-04-27 14:53 59.76702 21.42142 3525 ft 171 kts 281°
2026-04-27 14:53 59.76698 21.39810 3535 ft 171 kts 281°
2026-04-27 14:54 59.76620 21.37438 3538 ft 178 kts 267°
2026-04-27 14:54 59.76080 21.35144 3538 ft 193 kts 240°
2026-04-27 14:54 59.75264 21.33773 3529 ft 204 kts 212°
2026-04-27 14:54 59.73936 21.33262 3532 ft 210 kts 179°
2026-04-27 14:55 59.72477 21.33329 3541 ft 213 kts 181°
2026-04-27 14:55 59.71022 21.33327 3532 ft 213 kts 181°
2026-04-27 14:55 59.69521 21.33322 3541 ft 231 kts 181°
2026-04-27 14:55 59.67892 21.33316 3519 ft 242 kts 181°
2026-04-27 14:56 59.66187 21.33312 3519 ft 254 kts 181°
2026-04-27 14:56 59.64459 21.33309 3527 ft 257 kts 181°
2026-04-27 14:56 59.62666 21.33307 3535 ft 257 kts 181°
2026-04-27 14:56 59.60900 21.33305 3544 ft 258 kts 181°
2026-04-27 14:57 59.59110 21.33303 3541 ft 258 kts 181°
2026-04-27 14:57 59.57324 21.33302 3538 ft 258 kts 181°
2026-04-27 14:57 59.55558 21.33301 3537 ft 254 kts 181°
2026-04-27 14:57 59.53863 21.33303 3565 ft 236 kts 181°
2026-04-27 14:58 59.52322 21.33305 3577 ft 219 kts 182°
2026-04-27 14:58 59.50859 21.33308 3569 ft 208 kts 182°
2026-04-27 14:58 59.49418 21.33308 3553 ft 208 kts 182°
2026-04-27 14:58 59.47971 21.33307 3540 ft 207 kts 181°
2026-04-27 14:59 59.46540 21.33307 3537 ft 207 kts 181°
2026-04-27 14:59 59.45120 21.33602 3530 ft 207 kts 157°
2026-04-27 14:59 59.43971 21.35109 3537 ft 196 kts 121°
2026-04-27 14:59 59.43407 21.37400 3541 ft 183 kts 88°
2026-04-27 15:00 59.43351 21.39783 3552 ft 176 kts 77°
2026-04-27 15:00 59.43360 21.42146 3544 ft 177 kts 78°
2026-04-27 15:00 59.43361 21.44554 3544 ft 177 kts 79°
2026-04-27 15:00 59.43363 21.46942 3538 ft 178 kts 79°
2026-04-27 15:01 59.43364 21.49303 3541 ft 177 kts 79°
2026-04-27 15:01 59.43364 21.51675 3536 ft 178 kts 78°
2026-04-27 15:01 59.43364 21.54053 3531 ft 178 kts 79°
2026-04-27 15:01 59.43364 21.56401 3527 ft 178 kts 79°
2026-04-27 15:02 59.43362 21.58724 3530 ft 178 kts 78°
2026-04-27 15:02 59.43361 21.60984 3529 ft 178 kts 78°
2026-04-27 15:02 59.43360 21.63723 3529 ft 178 kts 78°
2026-04-27 15:02 59.43357 21.65962 3537 ft 179 kts 79°
2026-04-27 15:03 59.43355 21.68423 3539 ft 179 kts 80°
2026-04-27 15:03 59.43353 21.70856 3537 ft 180 kts 79°
2026-04-27 15:03 59.43482 21.73230 3537 ft 167 kts 54°
2026-04-27 15:03 59.44220 21.74710 3535 ft 145 kts 15°
2026-04-27 15:04 59.45182 21.75026 3553 ft 141 kts 357°
2026-04-27 15:04 59.46164 21.75010 3553 ft 142 kts 357°
2026-04-27 15:04 59.47155 21.75007 3544 ft 142 kts 357°
2026-04-27 15:04 59.48146 21.75006 3541 ft 142 kts 357°
2026-04-27 15:05 59.49131 21.75004 3539 ft 142 kts 357°
2026-04-27 15:05 59.50130 21.75003 3544 ft 142 kts 357°
2026-04-27 15:05 59.51122 21.75003 3540 ft 142 kts 357°
2026-04-27 15:05 59.52100 21.75002 3541 ft 142 kts 357°
2026-04-27 15:06 59.53079 21.75002 3537 ft 142 kts 357°
2026-04-27 15:06 59.54034 21.75001 3535 ft 142 kts 358°
2026-04-27 15:06 59.55015 21.75000 3533 ft 142 kts 357°
2026-04-27 15:06 59.56011 21.75000 3536 ft 142 kts 358°
2026-04-27 15:07 59.56982 21.75000 3536 ft 142 kts 358°
2026-04-27 15:07 59.57971 21.75000 3534 ft 141 kts 358°
2026-04-27 15:07 59.58952 21.75000 3532 ft 141 kts 358°
2026-04-27 15:07 59.59930 21.75000 3540 ft 143 kts 358°
2026-04-27 15:08 59.61006 21.74994 3534 ft 165 kts 358°
2026-04-27 15:08 59.62150 21.74994 3537 ft 170 kts 358°
2026-04-27 15:08 59.63340 21.74995 3537 ft 171 kts 359°
2026-04-27 15:08 59.64520 21.74997 3534 ft 171 kts 358°
2026-04-27 15:09 59.65705 21.74998 3534 ft 172 kts 358°
2026-04-27 15:09 59.66911 21.74999 3535 ft 172 kts 359°
2026-04-27 15:09 59.68105 21.75001 3533 ft 172 kts 358°
2026-04-27 15:09 59.69286 21.75002 3532 ft 172 kts 358°
2026-04-27 15:10 59.70486 21.75003 3531 ft 172 kts 358°
2026-04-27 15:10 59.71688 21.75004 3530 ft 171 kts 358°
2026-04-27 15:10 59.72878 21.75005 3531 ft 171 kts 359°
2026-04-27 15:10 59.74083 21.75005 3533 ft 171 kts 359°
2026-04-27 15:11 59.75273 21.75006 3532 ft 171 kts 359°
2026-04-27 15:11 59.76463 21.75007 3528 ft 171 kts 359°
2026-04-27 15:11 59.77660 21.75008 3524 ft 171 kts 359°
2026-04-27 15:11 59.78862 21.75008 3525 ft 171 kts 359°
2026-04-27 15:12 59.80048 21.75009 3528 ft 172 kts 359°
2026-04-27 15:12 59.81213 21.75010 3530 ft 168 kts 359°
2026-04-27 15:12 59.82328 21.75013 3542 ft 152 kts 359°
2026-04-27 15:12 59.83345 21.75014 3532 ft 146 kts 358°
2026-04-27 15:13 59.84326 21.74541 3510 ft 147 kts 331°
2026-04-27 15:13 59.84977 21.72979 3521 ft 158 kts 297°
2026-04-27 15:13 59.85090 21.70682 3534 ft 170 kts 281°
2026-04-27 15:13 59.85081 21.68327 3535 ft 171 kts 281°
2026-04-27 15:14 59.85083 21.65903 3537 ft 182 kts 281°
2026-04-27 15:14 59.85084 21.63375 3534 ft 185 kts 279°
2026-04-27 15:14 59.85081 21.60806 3534 ft 186 kts 279°
2026-04-27 15:14 59.85079 21.58230 3538 ft 187 kts 280°
2026-04-27 15:15 59.85076 21.55630 3539 ft 187 kts 280°
2026-04-27 15:15 59.85074 21.53087 3544 ft 188 kts 281°
2026-04-27 15:15 59.85072 21.50479 3540 ft 188 kts 281°
2026-04-27 15:15 59.85068 21.47871 3541 ft 188 kts 280°
2026-04-27 15:16 59.85062 21.45327 3545 ft 180 kts 281°
2026-04-27 15:16 59.85054 21.42940 3547 ft 173 kts 281°
2026-04-27 15:16 59.85050 21.40533 3540 ft 172 kts 281°
2026-04-27 15:16 59.85048 21.38193 3544 ft 171 kts 281°
2026-04-27 15:17 59.85045 21.35836 3548 ft 172 kts 281°
2026-04-27 15:17 59.85042 21.33483 3538 ft 172 kts 281°
2026-04-27 15:17 59.85038 21.31106 3540 ft 172 kts 281°
2026-04-27 15:17 59.84882 21.28684 3542 ft 185 kts 262°
2026-04-27 15:18 59.84203 21.26399 3545 ft 202 kts 232°
2026-04-27 15:18 59.82964 21.25040 3546 ft 215 kts 191°
2026-04-27 15:18 59.81477 21.24939 3562 ft 218 kts 180°
2026-04-27 15:18 59.79946 21.24959 3540 ft 219 kts 180°
2026-04-27 15:19 59.78436 21.24962 3554 ft 218 kts 181°
2026-04-27 15:19 59.76922 21.24966 3554 ft 219 kts 181°
2026-04-27 15:19 59.75415 21.24969 3553 ft 218 kts 181°
2026-04-27 15:19 59.73899 21.24972 3554 ft 218 kts 181°
2026-04-27 15:20 59.72386 21.24974 3552 ft 218 kts 181°
2026-04-27 15:20 59.70882 21.24977 3549 ft 218 kts 181°
2026-04-27 15:20 59.69354 21.24978 3550 ft 219 kts 181°
2026-04-27 15:20 59.67831 21.24980 3552 ft 219 kts 181°
2026-04-27 15:21 59.66322 21.24981 3554 ft 219 kts 181°
2026-04-27 15:21 59.64790 21.24983 3551 ft 218 kts 181°
2026-04-27 15:21 59.63284 21.24984 3550 ft 218 kts 181°
2026-04-27 15:21 59.61765 21.24984 3553 ft 218 kts 181°
2026-04-27 15:22 59.60251 21.24985 3549 ft 218 kts 181°
2026-04-27 15:22 59.58740 21.24986 3549 ft 218 kts 181°
2026-04-27 15:22 59.57225 21.24987 3551 ft 218 kts 181°
2026-04-27 15:22 59.55708 21.24987 3553 ft 218 kts 181°
2026-04-27 15:23 59.54184 21.24988 3554 ft 219 kts 181°
2026-04-27 15:23 59.52669 21.24988 3548 ft 219 kts 181°
2026-04-27 15:23 59.51162 21.24989 3548 ft 218 kts 181°
2026-04-27 15:23 59.49630 21.24989 3555 ft 218 kts 181°
2026-04-27 15:24 59.48115 21.24989 3549 ft 218 kts 181°
2026-04-27 15:24 59.46615 21.24990 3551 ft 218 kts 181°
2026-04-27 15:24 59.45100 21.24990 3553 ft 218 kts 181°
2026-04-27 15:24 59.43597 21.24990 3549 ft 217 kts 181°
2026-04-27 15:25 59.42076 21.24990 3553 ft 217 kts 181°
2026-04-27 15:25 59.40566 21.24991 3553 ft 217 kts 181°
2026-04-27 15:25 59.39066 21.24991 3553 ft 218 kts 181°
2026-04-27 15:25 59.37537 21.25055 3553 ft 218 kts 172°
2026-04-27 15:26 59.36161 21.26106 3548 ft 213 kts 137°
2026-04-27 15:26 59.35268 21.28276 3558 ft 199 kts 102°
2026-04-27 15:26 59.35026 21.30812 3561 ft 186 kts 80°
2026-04-27 15:26 59.35034 21.33321 3560 ft 186 kts 79°
2026-04-27 15:27 59.35038 21.35865 3547 ft 187 kts 79°
2026-04-27 15:27 59.35040 21.38410 3549 ft 187 kts 79°
2026-04-27 15:27 59.35042 21.40952 3548 ft 187 kts 79°
2026-04-27 15:27 59.35044 21.43477 3547 ft 187 kts 79°
2026-04-27 15:28 59.35045 21.46029 3546 ft 187 kts 79°
2026-04-27 15:28 59.35045 21.48593 3546 ft 188 kts 79°
2026-04-27 15:28 59.35046 21.51127 3537 ft 188 kts 79°
2026-04-27 15:28 59.35045 21.53695 3543 ft 187 kts 79°
2026-04-27 15:29 59.35044 21.56239 3541 ft 189 kts 79°
2026-04-27 15:29 59.35051 21.58916 3528 ft 203 kts 80°
2026-04-27 15:29 59.35051 21.61672 3527 ft 206 kts 80°
2026-04-27 15:29 59.35047 21.64472 3533 ft 207 kts 80°
2026-04-27 15:30 59.35043 21.67283 3530 ft 207 kts 81°
2026-04-27 15:30 59.35038 21.70082 3528 ft 209 kts 81°
2026-04-27 15:30 59.35033 21.72893 3531 ft 209 kts 81°
2026-04-27 15:30 59.35027 21.75756 3531 ft 209 kts 81°
2026-04-27 15:31 59.35022 21.78580 3526 ft 209 kts 80°
2026-04-27 15:31 59.35303 21.81194 3523 ft 191 kts 50°
2026-04-27 15:31 59.36216 21.82847 3529 ft 175 kts 19°
2026-04-27 15:31 59.37356 21.83339 3535 ft 170 kts 359°
2026-04-27 15:32 59.38521 21.83338 3537 ft 171 kts 358°
2026-04-27 15:32 59.39716 21.83337 3532 ft 171 kts 359°
2026-04-27 15:32 59.40924 21.83340 3534 ft 171 kts 359°
2026-04-27 15:32 59.42102 21.83342 3530 ft 171 kts 358°
2026-04-27 15:33 59.43295 21.83344 3530 ft 171 kts 359°
2026-04-27 15:33 59.44481 21.83345 3535 ft 171 kts 358°
2026-04-27 15:33 59.45665 21.83346 3529 ft 171 kts 359°
2026-04-27 15:33 59.46862 21.83347 3525 ft 171 kts 359°
2026-04-27 15:34 59.48040 21.83348 3526 ft 171 kts 358°
2026-04-27 15:34 59.49235 21.83348 3530 ft 171 kts 358°
2026-04-27 15:34 59.50423 21.83349 3528 ft 171 kts 359°
2026-04-27 15:34 59.51602 21.83349 3529 ft 171 kts 359°
2026-04-27 15:35 59.52795 21.83349 3527 ft 171 kts 359°
2026-04-27 15:35 59.53979 21.83350 3529 ft 171 kts 359°
2026-04-27 15:35 59.55156 21.83350 3526 ft 171 kts 359°
2026-04-27 15:35 59.56346 21.83350 3527 ft 171 kts 359°
2026-04-27 15:36 59.57526 21.83351 3527 ft 171 kts 359°
2026-04-27 15:36 59.58705 21.83350 3528 ft 171 kts 359°
2026-04-27 15:36 59.59892 21.83350 3527 ft 171 kts 359°
2026-04-27 15:36 59.61075 21.83350 3524 ft 171 kts 359°
2026-04-27 15:37 59.62271 21.83350 3522 ft 171 kts 359°
2026-04-27 15:37 59.63457 21.83350 3523 ft 171 kts 359°
2026-04-27 15:37 59.64638 21.83350 3529 ft 171 kts 359°
2026-04-27 15:37 59.65822 21.83350 3529 ft 171 kts 359°
2026-04-27 15:38 59.67007 21.83350 3525 ft 172 kts 359°
2026-04-27 15:38 59.68209 21.83350 3525 ft 172 kts 359°
2026-04-27 15:38 59.69387 21.83350 3526 ft 172 kts 359°
2026-04-27 15:38 59.70583 21.83351 3527 ft 172 kts 359°
2026-04-27 15:39 59.71782 21.83351 3528 ft 172 kts 359°
2026-04-27 15:39 59.72978 21.83351 3529 ft 172 kts 359°
2026-04-27 15:39 59.74167 21.83351 3526 ft 172 kts 359°
2026-04-27 15:39 59.75357 21.83351 3525 ft 171 kts 359°
2026-04-27 15:40 59.76558 21.83350 3526 ft 171 kts 359°
2026-04-27 15:40 59.77692 21.83350 3525 ft 171 kts 359°
2026-04-27 15:40 59.78876 21.83349 3527 ft 171 kts 359°
2026-04-27 15:40 59.80056 21.83349 3527 ft 171 kts 359°
2026-04-27 15:41 59.81245 21.83349 3530 ft 171 kts 359°
2026-04-27 15:41 59.82415 21.83349 3528 ft 171 kts 359°
2026-04-27 15:41 59.83615 21.83349 3525 ft 171 kts 359°
2026-04-27 15:41 59.84797 21.83349 3521 ft 172 kts 359°
2026-04-27 15:42 59.85984 21.83349 3524 ft 171 kts 359°
2026-04-27 15:42 59.87153 21.83349 3527 ft 171 kts 359°
2026-04-27 15:42 59.88338 21.83349 3528 ft 171 kts 359°
2026-04-27 15:42 59.89527 21.83349 3529 ft 172 kts 359°
2026-04-27 15:43 59.90714 21.83349 3526 ft 171 kts 359°
2026-04-27 15:43 59.91875 21.83143 3522 ft 171 kts 344°
2026-04-27 15:43 59.92876 21.81868 3521 ft 177 kts 317°
2026-04-27 15:43 59.93378 21.79535 3534 ft 194 kts 284°
2026-04-27 15:44 59.93404 21.76835 3538 ft 198 kts 279°
2026-04-27 15:44 59.93399 21.74079 3533 ft 199 kts 279°
2026-04-27 15:44 59.93399 21.71345 3531 ft 199 kts 279°
2026-04-27 15:44 59.93398 21.68644 3537 ft 198 kts 280°
2026-04-27 15:45 59.93398 21.65904 3539 ft 199 kts 280°
2026-04-27 15:45 59.93398 21.63140 3539 ft 199 kts 280°
2026-04-27 15:45 59.93397 21.60411 3533 ft 199 kts 280°
2026-04-27 15:45 59.93397 21.57690 3534 ft 199 kts 280°
2026-04-27 15:46 59.93396 21.54914 3533 ft 199 kts 280°
2026-04-27 15:46 59.93395 21.52210 3535 ft 199 kts 280°
2026-04-27 15:46 59.93393 21.49459 3537 ft 199 kts 280°
2026-04-27 15:46 59.93391 21.46706 3540 ft 199 kts 280°
2026-04-27 15:47 59.93389 21.43945 3540 ft 199 kts 280°
2026-04-27 15:47 59.93386 21.41170 3541 ft 199 kts 280°
2026-04-27 15:47 59.93384 21.38424 3538 ft 200 kts 280°
2026-04-27 15:47 59.93380 21.35671 3541 ft 200 kts 280°
2026-04-27 15:48 59.93376 21.32927 3545 ft 200 kts 279°
2026-04-27 15:48 59.93372 21.30157 3547 ft 200 kts 279°
2026-04-27 15:48 59.93367 21.27380 3550 ft 200 kts 279°
2026-04-27 15:49 59.93234 21.21834 3548 ft 208 kts 264°
2026-04-27 15:49 59.92589 21.19170 3553 ft 222 kts 239°
2026-04-27 15:49 59.91394 21.17213 3554 ft 234 kts 209°
2026-04-27 15:49 59.89804 21.16612 3557 ft 243 kts 180°
2026-04-27 15:50 59.87986 21.16634 3520 ft 279 kts 180°
2026-04-27 15:50 59.86029 21.16637 3523 ft 286 kts 180°
2026-04-27 15:50 59.84029 21.16636 3541 ft 289 kts 180°
2026-04-27 15:50 59.82034 21.16636 3548 ft 289 kts 180°
2026-04-27 15:51 59.80017 21.16637 3552 ft 290 kts 180°
2026-04-27 15:51 59.78002 21.16636 3555 ft 290 kts 180°
2026-04-27 15:51 59.76008 21.16636 3558 ft 291 kts 180°
2026-04-27 15:51 59.73990 21.16636 3557 ft 291 kts 180°
2026-04-27 15:52 59.71977 21.16636 3555 ft 291 kts 180°
2026-04-27 15:52 59.69942 21.16636 3558 ft 290 kts 180°
2026-04-27 15:52 59.67928 21.16636 3561 ft 290 kts 180°
2026-04-27 15:52 59.65905 21.16636 3554 ft 290 kts 180°
2026-04-27 15:53 59.63914 21.16636 3554 ft 290 kts 180°
2026-04-27 15:53 59.61895 21.16636 3557 ft 290 kts 180°
2026-04-27 15:53 59.59898 21.16636 3558 ft 289 kts 180°
2026-04-27 15:53 59.57880 21.16636 3561 ft 290 kts 181°
2026-04-27 15:54 59.55881 21.16636 3561 ft 290 kts 181°
2026-04-27 15:54 59.53855 21.16636 3562 ft 290 kts 180°
2026-04-27 15:54 59.51853 21.16636 3560 ft 290 kts 180°
2026-04-27 15:54 59.49838 21.16636 3565 ft 290 kts 180°
2026-04-27 15:55 59.47809 21.16636 3561 ft 290 kts 180°
2026-04-27 15:55 59.46483 21.16636 3563 ft 289 kts 180°
2026-04-27 15:55 59.43816 21.16637 3564 ft 290 kts 181°
2026-04-27 15:55 59.41795 21.16637 3560 ft 289 kts 181°
2026-04-27 15:56 59.39803 21.16637 3568 ft 290 kts 181°
2026-04-27 15:56 59.37781 21.16638 3564 ft 290 kts 180°
2026-04-27 15:56 59.35846 21.17288 3568 ft 288 kts 154°
2026-04-27 15:56 59.34219 21.19447 3559 ft 284 kts 136°
2026-04-27 15:57 59.32717 21.21906 3562 ft 284 kts 135°
2026-04-27 15:57 59.31223 21.24373 3562 ft 283 kts 135°
2026-04-27 15:57 59.30013 21.27220 3566 ft 272 kts 109°
2026-04-27 15:57 59.29676 21.30684 3561 ft 253 kts 77°
2026-04-27 15:58 59.30006 21.33981 3556 ft 249 kts 69°
2026-04-27 15:58 59.30404 21.37212 3552 ft 249 kts 68°
2026-04-27 15:58 59.30808 21.40484 3548 ft 248 kts 69°
2026-04-27 15:58 59.31210 21.43753 3549 ft 249 kts 68°
2026-04-27 15:59 59.31799 21.46806 3550 ft 237 kts 47°
2026-04-27 15:59 59.33025 21.48683 3554 ft 224 kts 15°
2026-04-27 15:59 59.34532 21.48747 3550 ft 221 kts 345°
2026-04-27 15:59 59.35965 21.47711 3544 ft 222 kts 339°
2026-04-27 16:00 59.37382 21.46536 3551 ft 222 kts 339°
2026-04-27 16:00 59.38311 21.45753 3555 ft 222 kts 339°
2026-04-27 16:00 59.40184 21.44173 3553 ft 223 kts 339°
2026-04-27 16:00 59.41638 21.43495 3557 ft 222 kts
2026-04-27 16:01 59.43132 21.43882 3548 ft 222 kts
2026-04-27 16:01 59.44604 21.44440 3546 ft 223 kts
2026-04-27 16:01 59.46062 21.44999 3543 ft 223 kts
2026-04-27 16:01 59.47571 21.45577 3542 ft 222 kts
2026-04-27 16:02 59.49052 21.46145 3541 ft 222 kts
2026-04-27 16:02 59.50549 21.46720 3537 ft 222 kts
2026-04-27 16:02 59.52032 21.47285 3540 ft 222 kts
2026-04-27 16:02 59.53508 21.47911 3541 ft 223 kts 14°
2026-04-27 16:03 59.54959 21.48944 3542 ft 224 kts 17°
2026-04-27 16:03 59.56387 21.50017 3543 ft 224 kts 17°
2026-04-27 16:03 59.57829 21.51093 3540 ft 224 kts 17°
2026-04-27 16:03 59.59284 21.52178 3542 ft 225 kts 17°
2026-04-27 16:04 59.60736 21.53260 3539 ft 225 kts 17°
2026-04-27 16:04 59.62198 21.54348 3540 ft 225 kts 17°
2026-04-27 16:04 59.63638 21.55421 3541 ft 224 kts 17°
2026-04-27 16:04 59.65093 21.56504 3544 ft 224 kts 17°
2026-04-27 16:05 59.66553 21.57591 3540 ft 224 kts 17°
2026-04-27 16:05 59.68013 21.58678 3541 ft 224 kts 17°
2026-04-27 16:05 59.69455 21.59751 3533 ft 224 kts 17°
2026-04-27 16:05 59.70838 21.60781 3532 ft 224 kts 17°
2026-04-27 16:06 59.72253 21.61835 3536 ft 225 kts 17°
2026-04-27 16:06 59.73700 21.62914 3537 ft 225 kts 17°
2026-04-27 16:06 59.75169 21.64009 3535 ft 224 kts 17°
2026-04-27 16:06 59.76597 21.65075 3534 ft 226 kts 18°
2026-04-27 16:07 59.78081 21.66180 3528 ft 233 kts 18°
2026-04-27 16:07 59.79598 21.67314 3529 ft 234 kts 18°
2026-04-27 16:07 59.81094 21.68434 3530 ft 234 kts 18°
2026-04-27 16:07 59.82622 21.69577 3533 ft 238 kts 18°
2026-04-27 16:08 59.84136 21.70711 3531 ft 239 kts 18°
2026-04-27 16:08 59.85668 21.71860 3530 ft 239 kts 18°
2026-04-27 16:08 59.87231 21.73033 3527 ft 239 kts 18°
2026-04-27 16:08 59.88789 21.74204 3527 ft 240 kts 18°
2026-04-27 16:09 59.90331 21.75363 3529 ft 240 kts 18°
2026-04-27 16:09 59.93449 21.77711 3528 ft 240 kts 18°
2026-04-27 16:09 59.94994 21.78876 3527 ft 240 kts 18°
2026-04-27 16:10 59.98107 21.81228 3523 ft 239 kts 18°
2026-04-27 16:10 60.01181 21.83553 3503 ft 240 kts 18°
2026-04-27 16:11 60.02729 21.84726 3514 ft 240 kts 18°
2026-04-27 16:11 60.05799 21.87055 3523 ft 240 kts 18°
2026-04-27 16:12 60.08842 21.89383 3521 ft 231 kts 18°
2026-04-27 16:12 60.10237 21.90490 3534 ft 209 kts 18°
2026-04-27 16:12 60.12775 21.92534 3512 ft 195 kts 18°
2026-04-27 16:13 60.14021 21.93537 3515 ft 194 kts 18°
2026-04-27 16:13 60.16538 21.95471 3515 ft 194 kts 17°
2026-04-27 16:13 60.17738 21.96356 3519 ft 194 kts 17°
2026-04-27 16:14 60.20254 21.98228 3525 ft 194 kts 17°
2026-04-27 16:14 60.22692 22.00058 3521 ft 194 kts 17°
2026-04-27 16:15 60.25161 22.01925 3511 ft 194 kts 17°
2026-04-27 16:15 60.27523 22.03728 3506 ft 175 kts 17°
2026-04-27 16:16 60.29765 22.05436 3505 ft 174 kts 17°
2026-04-27 16:16 60.32310 22.07364 3379 ft 218 kts 18°
2026-04-27 16:17 60.35102 22.09519 2827 ft 218 kts 18°
2026-04-27 16:17 60.37905 22.11723 2219 ft 218 kts 18°
2026-04-27 16:18 60.40670 22.13894 1611 ft 218 kts 18°
2026-04-27 16:18 60.43457 22.16231 1214 ft 216 kts 28°
2026-04-27 16:19 60.44494 22.18240 1226 ft 206 kts 51°
2026-04-27 16:19 60.45006 22.20883 1219 ft 199 kts 73°
2026-04-27 16:20 60.45014 22.29289 1245 ft 199 kts 83°
2026-04-27 16:20 60.44993 22.32120 1194 ft 203 kts 84°
2026-04-27 16:20 60.44945 22.37781 1220 ft 210 kts 84°
2026-04-27 16:21 60.44922 22.40759 1176 ft 210 kts 84°
2026-04-27 16:21 60.44831 22.49406 1175 ft 191 kts 84°
2026-04-27 16:22 60.44799 22.52001 1171 ft 176 kts 83°
2026-04-27 16:22 60.44751 22.56823 1123 ft 170 kts 83°
2026-04-27 16:22 60.44729 22.59229 1162 ft 174 kts 83°
2026-04-27 16:23 60.44819 22.61594 1125 ft 160 kts 59°
2026-04-27 16:23 60.46469 22.63581 1141 ft 142 kts 355°
2026-04-27 16:23 60.47456 22.63404 1145 ft 146 kts 353°
2026-04-27 16:24 60.48521 22.63221 1131 ft 163 kts 354°
2026-04-27 16:24 60.50961 22.62721 1369 ft 176 kts 351°
2026-04-27 16:25 60.53121 22.60724 2429 ft 193 kts 311°
2026-04-27 16:25 60.52476 22.53956 2842 ft 335 kts 249°
2026-04-27 16:26 60.51350 22.45491 2490 ft 290 kts 276°
2026-04-27 16:26 60.51670 22.37592 1563 ft 277 kts 278°
2026-04-27 16:27 60.51513 22.30357 923 ft 235 kts 269°
2026-04-27 16:27 60.51210 22.21368 710 ft 193 kts 271°
2026-04-27 16:28 60.51015 22.15912 652 ft 239 kts 268°
2026-04-27 16:28 60.49005 22.12100 1055 ft 230 kts 181°
2026-04-27 16:29 60.46640 22.18401 1192 ft 190 kts 83°
2026-04-27 16:30 60.46584 22.24131 1143 ft 206 kts 84°
2026-04-27 16:30 60.46438 22.29818 911 ft 219 kts 86°
2026-04-27 16:31 60.46329 22.38788 1052 ft 199 kts 79°
2026-04-27 16:31 60.47871 22.42218 910 ft 188 kts 355°
2026-04-27 16:32 60.50046 22.39744 886 ft 169 kts 308°
2026-04-27 16:32 60.50410 22.37781 1028 ft 142 kts 296°
2026-04-27 16:33 60.51281 22.34623 922 ft 120 kts 308°
2026-04-27 16:33 60.51621 22.32859 953 ft 152 kts 280°
2026-04-27 16:33 60.51529 22.30877 709 ft 140 kts 272°
2026-04-27 16:33 60.51511 22.29019 305 ft 130 kts 277°
2026-04-27 16:34 60.51446 22.27238 166 ft 115 kts 271°
2026-04-27 16:34 60.51393 22.25955 155 ft 67 kts 266°
2026-04-27 16:34 60.51382 22.25432 151 ft 24 kts 264°
2026-04-27 16:34 60.51356 22.25308 149 ft 9 kts 210°
2026-04-27 16:35 60.51269 22.25261 148 ft 15 kts 175°
2026-04-27 16:35 60.51217 22.25328 149 ft 8 kts 129°
2026-04-27 16:35 60.51212 22.25636 153 ft 14 kts 86°
2026-04-27 16:36 60.51223 22.25847 156 ft 15 kts 82°
2026-04-27 16:36 60.51241 22.26077 159 ft 17 kts 79°
2026-04-27 16:36 60.51280 22.26324 163 ft 19 kts 69°
2026-04-27 16:36 60.51302 22.26481 163 ft 1 kts 102°
2026-04-27 16:37 60.51265 22.26520 164 ft 9 kts 129°